2020-086A

Last updated on Mon Nov 23 2020 00:02:06 GMT+0000 (Coordinated Universal Time)

1 46984U 20086A 20327.54479867 -.00000062 00000-0 00000+0 0 9999 2 46984 66.0702 37.3775 0012065 238.5312 121.4412 12.85502100 104

Satellite not in orbit

2020-086A